Salem, IL

3:33 PM CDT on April 22, 2018 (GMT -0500)
Salem-Leckrone

Weather History for KSLO - January, 2013

Change the Weather History Date:

Thursday, January 24, 2013

  Actual Average Record
Temperature  
Mean Temperature 22 °F -  
Max Temperature 28 °F 42 °F 68 °F (1967)
Min Temperature 16 °F 23 °F -12 °F (1963)
Degree Days  
Heating Degree Days 43    
Moisture  
Dew Point 10 °F    
Average Humidity 57    
Maximum Humidity 72    
Minimum Humidity 44    
Precipitation  
Precipitation 0.00 in - - ()
Sea Level Pressure  
Sea Level Pressure 30.46 in    
Wind  
Wind Speed 11 mph (ENE)    
Max Wind Speed 22 mph    
Max Gust Speed 28 mph    
Visibility 10 miles    
Events      
Averages and records for this station are not official NWS values.
T = Trace of Precipitation, MM = Missing Value Source: NWS Daily Summary

Daily Weather History Graph

Daily Weather History Graph

Search for Another Location

Airport or City:

Astronomy

Jan. 24, 2013 Rise Set
Actual Time 7:07 AM CST 5:08 PM CST
Civil Twilight 6:39 AM CST 5:37 PM CST
Nautical Twilight 6:06 AM CST 6:09 PM CST
Astronomical Twilight 5:35 AM CST 6:41 PM CST
Moon 3:11 PM CST (1/24) 5:04 AM CST (1/24)
Length of Visible Light 10h 58m
Length of Day
10h 01m
Waxing Gibbous, 94% of the Moon is Illuminated
Jan 24
Waxing Gibbous
Jan 26
Full
Feb 3
Last Quarter
Feb 10
New
Feb 17
First Quarter

Hourly Weather History & Observations

Time (CST) Temp. Windchill Dew Point Humidity Pressure Visibility Wind Dir Wind Speed Gust Speed Precip Events Conditions
12:15 AM 28.9 °F 17.3 °F 18.3 °F 65% 30.32 in 10.0 mi NNW 16.1 mph 23.0 mph N/A   Clear
12:35 AM 28.4 °F 15.4 °F 18.5 °F 66% 30.33 in 10.0 mi NNW 19.6 mph 24.2 mph N/A   Clear
12:55 AM 27.9 °F 15.1 °F 17.4 °F 65% 30.33 in 10.0 mi NNW 18.4 mph 24.2 mph N/A   Clear
1:15 AM 27.3 °F 16.1 °F 17.6 °F 67% 30.35 in 10.0 mi NNW 13.8 mph - N/A   Clear
1:35 AM 26.6 °F 15.7 °F 17.6 °F 69% 30.37 in 10.0 mi North 12.7 mph 21.9 mph N/A   Mostly Cloudy
1:55 AM 25.5 °F 10.9 °F 14.4 °F 63% 30.39 in 10.0 mi North 21.9 mph 27.6 mph N/A   Overcast
2:15 AM 24.8 °F 11.1 °F 14.0 °F 64% 30.40 in 10.0 mi North 18.4 mph 23.0 mph N/A   Overcast
2:35 AM 24.3 °F 11.2 °F 14.5 °F 67% 30.41 in 10.0 mi North 16.1 mph 20.7 mph N/A   Overcast
2:55 AM 23.4 °F 9.6 °F 14.4 °F 68% 30.42 in 10.0 mi North 17.3 mph - N/A   Mostly Cloudy
3:15 AM 22.6 °F 9.6 °F 13.3 °F 67% 30.43 in 10.0 mi North 15.0 mph - N/A   Scattered Clouds
3:35 AM 21.2 °F 8.3 °F 12.2 °F 68% 30.43 in 10.0 mi North 13.8 mph - N/A   Clear
3:55 AM 21.2 °F 10.1 °F 12.9 °F 70% 30.44 in 10.0 mi North 10.4 mph - N/A   Clear
4:15 AM 21.0 °F 10.6 °F 13.3 °F 72% 30.45 in 10.0 mi North 9.2 mph - N/A   Clear
4:35 AM 20.8 °F 7.9 °F 11.8 °F 68% 30.46 in 10.0 mi North 13.8 mph 20.7 mph N/A   Scattered Clouds
4:55 AM 20.7 °F 9.5 °F 12.0 °F 69% 30.47 in 10.0 mi NNE 10.4 mph - N/A   Mostly Cloudy
5:15 AM 19.4 °F 6.0 °F 9.3 °F 65% 30.48 in 10.0 mi NNE 13.8 mph 19.6 mph N/A   Overcast
5:35 AM 18.9 °F 6.5 °F 5.2 °F 55% 30.50 in 10.0 mi NNE 11.5 mph - N/A   Overcast
5:55 AM 18.3 °F 8.2 °F 5.0 °F 56% 30.52 in 10.0 mi NNE 8.1 mph - N/A   Scattered Clouds
6:15 AM 18.1 °F 10.0 °F 5.5 °F 58% 30.53 in 10.0 mi NNE 5.8 mph - N/A   Clear
6:35 AM 17.6 °F 8.2 °F 5.9 °F 60% 30.53 in 10.0 mi NNE 6.9 mph - N/A   Clear
6:55 AM 17.6 °F 9.3 °F 5.0 °F 58% 30.53 in 10.0 mi NNE 5.8 mph - N/A   Clear
7:15 AM 17.2 °F 7.8 °F 5.2 °F 59% 30.54 in 10.0 mi NE 6.9 mph - N/A   Clear
7:35 AM 16.7 °F 5.3 °F 6.3 °F 64% 30.55 in 10.0 mi NE 9.2 mph - N/A   Clear
7:55 AM 16.5 °F 6.9 °F 5.9 °F 63% 30.54 in 10.0 mi NNE 6.9 mph - N/A   Clear
8:15 AM 16.5 °F 6.9 °F 6.1 °F 64% 30.56 in 10.0 mi NE 6.9 mph - N/A   Clear
8:35 AM 16.9 °F 6.4 °F 6.6 °F 64% 30.57 in 10.0 mi NNE 8.1 mph - N/A   Clear
8:55 AM 17.2 °F 4.5 °F 6.4 °F 63% 30.58 in 10.0 mi NE 11.5 mph 16.1 mph N/A   Clear
9:15 AM 17.8 °F 6.6 °F 7.2 °F 63% 30.59 in 10.0 mi NE 9.2 mph - N/A   Clear
9:35 AM 17.8 °F 7.5 °F 7.2 °F 63% 30.59 in 10.0 mi NE 8.1 mph - N/A   Clear
9:55 AM 18.3 °F 8.2 °F 7.7 °F 63% 30.61 in 10.0 mi NE 8.1 mph - N/A   Clear
10:15 AM 19.4 °F 10.4 °F 8.1 °F 61% 30.62 in 10.0 mi NE 6.9 mph - N/A   Clear
10:35 AM 20.7 °F 13.0 °F 9.1 °F 61% 30.60 in 10.0 mi East 5.8 mph - N/A   Clear
10:55 AM 20.8 °F 13.2 °F 9.1 °F 61% 30.60 in 10.0 mi NE 5.8 mph - N/A   Clear
11:15 AM 21.7 °F 13.2 °F 9.9 °F 60% 30.59 in 10.0 mi ENE 6.9 mph - N/A   Clear
11:35 AM 22.1 °F 12.0 °F 9.9 °F 59% 30.58 in 10.0 mi ENE 9.2 mph - N/A   Clear
11:55 AM 22.8 °F 12.9 °F 9.7 °F 57% 30.57 in 10.0 mi ENE 9.2 mph - N/A   Clear
12:15 PM 23.4 °F 13.5 °F 9.9 °F 56% 30.56 in 10.0 mi East 9.2 mph - N/A   Clear
12:35 PM 24.3 °F 17.3 °F 10.4 °F 56% 30.54 in 10.0 mi ENE 5.8 mph - N/A   Clear
12:55 PM 24.8 °F - 10.2 °F 54% 30.54 in 10.0 mi Calm Calm - N/A   Clear
1:15 PM 24.6 °F 16.7 °F 10.2 °F 54% 30.53 in 10.0 mi ENE 6.9 mph - N/A   Clear
1:35 PM 25.3 °F 16.7 °F 10.4 °F 53% 30.53 in 10.0 mi East 8.1 mph - N/A   Clear
1:55 PM 26.1 °F 18.4 °F 10.6 °F 52% 30.50 in 10.0 mi East 6.9 mph - N/A   Clear
2:15 PM 26.1 °F 16.2 °F 9.3 °F 49% 30.50 in 10.0 mi East 10.4 mph 17.3 mph N/A   Clear
2:35 PM 26.1 °F 17.6 °F 10.0 °F 51% 30.48 in 10.0 mi East 8.1 mph - N/A   Clear
2:55 PM 27.1 °F 17.5 °F 10.6 °F 50% 30.47 in 10.0 mi ESE 10.4 mph - N/A   Clear
3:15 PM 27.1 °F 18.2 °F 10.8 °F 50% 30.47 in 10.0 mi East 9.2 mph - N/A   Clear
3:35 PM 26.6 °F 17.5 °F 9.5 °F 49% 30.47 in 10.0 mi East 9.2 mph - N/A   Clear
3:55 PM 27.1 °F 21.8 °F 9.5 °F 48% 30.46 in 10.0 mi ESE 4.6 mph - N/A   Clear
4:15 PM 27.1 °F 19.7 °F 8.8 °F 46% 30.45 in 10.0 mi East 6.9 mph - N/A   Clear
4:35 PM 27.3 °F 19.9 °F 9.0 °F 46% 30.45 in 10.0 mi East 6.9 mph - N/A   Clear
4:55 PM 27.1 °F 21.8 °F 8.2 °F 45% 30.45 in 10.0 mi East 4.6 mph - N/A   Clear
5:15 PM 27.0 °F 21.6 °F 9.1 °F 47% 30.45 in 10.0 mi ESE 4.6 mph - N/A   Clear
5:35 PM 27.0 °F 19.5 °F 9.3 °F 48% 30.44 in 10.0 mi East 6.9 mph - N/A   Clear
5:55 PM 26.6 °F 19.1 °F 9.9 °F 49% 30.43 in 10.0 mi East 6.9 mph - N/A   Clear
6:15 PM 26.6 °F 22.6 °F 10.6 °F 51% 30.43 in 10.0 mi ESE 3.5 mph - N/A   Clear
6:35 PM 26.6 °F 21.2 °F 10.8 °F 51% 30.42 in 10.0 mi ESE 4.6 mph - N/A   Clear
6:55 PM 26.4 °F 22.4 °F 11.3 °F 53% 30.41 in 10.0 mi ESE 3.5 mph - N/A   Clear
7:15 PM 26.2 °F 20.7 °F 11.7 °F 54% 30.41 in 10.0 mi ESE 4.6 mph - N/A   Clear
7:35 PM 25.7 °F 20.1 °F 11.5 °F 55% 30.40 in 10.0 mi ESE 4.6 mph - N/A   Clear
7:55 PM 25.7 °F - 12.4 °F 57% 30.40 in 10.0 mi Calm Calm - N/A   Clear
8:15 PM 25.7 °F 21.5 °F 12.9 °F 58% 30.39 in 10.0 mi East 3.5 mph - N/A   Clear
8:35 PM 25.7 °F 20.1 °F 12.4 °F 57% 30.38 in 10.0 mi East 4.6 mph - N/A   Clear
8:55 PM 26.1 °F - 12.4 °F 56% 30.38 in 10.0 mi Calm Calm - N/A   Clear
9:15 PM 26.4 °F 19.8 °F 12.7 °F 56% 30.37 in 10.0 mi East 5.8 mph - N/A   Mostly Cloudy
9:35 PM 26.6 °F 20.0 °F 11.7 °F 53% 30.35 in 10.0 mi East 5.8 mph - N/A   Overcast
9:55 PM 27.0 °F 18.7 °F 11.7 °F 53% 30.35 in 10.0 mi East 8.1 mph - N/A   Overcast
10:15 PM 27.1 °F 18.9 °F 11.3 °F 51% 30.33 in 10.0 mi East 8.1 mph - N/A   Overcast
10:35 PM 27.3 °F 20.9 °F 10.4 °F 49% 30.31 in 10.0 mi ESE 5.8 mph - N/A   Overcast
10:55 PM 27.5 °F 18.6 °F 9.7 °F 47% 30.31 in 10.0 mi SE 9.2 mph - N/A   Overcast
11:15 PM 27.5 °F 19.3 °F 9.7 °F 47% 30.31 in 10.0 mi SE 8.1 mph - N/A   Overcast
11:35 PM 28.0 °F 20.8 °F 8.6 °F 44% 30.30 in 10.0 mi ESE 6.9 mph - N/A   Overcast
11:55 PM 28.0 °F 21.7 °F 8.4 °F 44% 30.29 in 10.0 mi East 5.8 mph - N/A   Overcast